This demonstration page uses our WeatherBlox Daily Observations layout. Learn more.

Left ArrowRight Arrow

Hourly Observations for April 6, 2018

Temp ( °F °C ) Dew Point ( °F °C ) Humidity (%) Winds ( mph kmh ) Pressure ( in mb ) Visibility ( mi km ) Precip ( " mm )
12:12 am 00:12 Cloudy with Mist and Fog 52 11.1 51 10.6 97 97 Calm 30.03 1017 5 8 0.00 0.03
12:30 am 00:30 Cloudy with Light Rain 52 11.1 51 10.6 97 97 Calm 30.03 1017 5 8 0.00 0.03
12:53 am 00:53 Cloudy with Light Rain 52 11.1 51 10.6 97 97 WNW 3 6 30.03 1017 4 6 0.01 0.25
1:36 am 01:36 Cloudy with Light Rain 52 11.1 51 10.6 97 97 Calm 30.03 1017 4 6 0.02 0.51
1:49 am 01:49 Cloudy with Light Rain 52 11 52 11 100 100 N 5 7 30.03 1017 4 6 0.03 0.76
1:53 am 01:53 Cloudy with Light Rain 51 10.6 51 10.6 100 100 N 3 6 30.02 1017 4 6 0.04 1.02
2:16 am 02:16 Cloudy with Light Rain 52 11.1 51 10.6 97 97 NNE 5 7 30.03 1017 4 6 0.01 0.25
2:30 am 02:30 Cloudy with Light Rain 52 11.1 51 10.6 97 97 N 5 7 30.03 1017 5 8 0.02 0.51
2:42 am 02:42 Cloudy with Light Rain 52 11.1 51 10.6 97 97 N 5 7 30.00 1016 5 8 0.03 0.76
2:53 am 02:53 Cloudy with Light Rain 52 11.1 51 10.6 97 97 NNE 6 9 30.00 1016 5 8 0.04 1.02
3:25 am 03:25 Cloudy with Light Rain 52 11.1 51 10.6 97 97 N 7 11 30.00 1016 5 8 0.02 0.51
3:53 am 03:53 Cloudy with Light Rain 52 11.1 51 10.6 97 97 N 7 11 29.99 1016 6 10 0.05 1.27
4:19 am 04:19 Cloudy with Light Rain 52 11.1 51 10.6 97 97 N 7 11 30.00 1016 7 11 0.02 0.51
4:53 am 04:53 Cloudy with Light Rain 52 11.1 51 10.6 97 97 NNE 6 9 29.98 1015 8 13 0.05 1.27
5:39 am 05:39 Cloudy with Light Rain 52 11.1 51 10.6 97 97 NE 3 6 29.97 1015 6 10 0.04 1.02
5:53 am 05:53 Cloudy with Light Rain 52 11.1 51 10.6 97 97 NNE 6 9 29.96 1014 7 11 0.04 1.02
6:53 am 06:53 Cloudy with Light Rain 52 11.1 51 10.6 97 97 Calm 29.96 1015 4 6 0.06 1.52
7:25 am 07:25 Cloudy with Rain 52 11.1 51 10.6 97 97 N 3 6 29.97 1015 3 4 0.08 2.03
7:53 am 07:53 Cloudy with Light Rain 52 11.1 51 10.6 97 97 NE 5 7 29.94 1014 5 8 0.12 3.05
8:13 am 08:13 Cloudy with Light Rain 52 11.1 51 10.6 97 97 NNE 3 6 29.94 1014 4 6 0.03 0.76
8:38 am 08:38 Cloudy with Rain 52 11.1 51 10.6 97 97 N 5 7 29.94 1014 3 4 0.08 2.03
8:45 am 08:45 Cloudy with Rain 52 11.1 51 10.6 97 97 N 3 6 29.97 1015 3 5 0.09 2.29
8:53 am 08:53 Cloudy with Rain 52 11.1 51 10.6 97 97 N 3 6 29.95 1014 3 5 0.11 2.79
8:59 am 08:59 Cloudy with Rain 52 11.1 51 10.6 97 97 Calm 29.97 1015 3 4 0.02 0.51
9:11 am 09:11 Cloudy with Rain 52 11.1 51 10.6 97 97 Calm 29.94 1014 3 5 0.05 1.27
9:33 am 09:33 Cloudy with Rain 52 11.1 51 10.6 97 97 NNE 3 6 29.94 1014 4 6 0.10 2.54
9:53 am 09:53 Cloudy with Rain 53 11.7 51 10.6 93 93 NE 6 9 29.93 1014 5 8 0.14 3.56
10:47 am 10:47 Cloudy with Light Rain 54 12 52 11 94 94 NE 5 7 29.94 1014 3 4 0.06 1.52
10:48 am 10:48 Cloudy with Light Rain 54 12.2 52 11.1 93 93 NE 5 7 29.91 1013 3 4 0.06 1.52
11:19 am 11:19 Cloudy with Light Rain 54 12.2 52 11.1 93 93 NNE 3 6 29.94 1014 3 5 0.04 1.02
11:26 am 11:26 Cloudy with Light Rain 54 12.2 52 11.1 93 93 N 5 7 29.94 1014 3 4 0.06 1.52
11:36 am 11:36 Cloudy with Rain 54 12.2 52 11.1 93 93 NNE 6 9 29.94 1014 2 3 0.08 2.03
11:44 am 11:44 Cloudy with Rain 54 12.2 53 11.7 97 97 ENE 6 9 29.91 1013 2 3 0.11 2.79
11:53 am 11:53 Cloudy with Rain 54 12.2 52 11.1 93 93 NE 6 9 29.88 1012 3 4 0.12 3.05
12:00 pm 12:00 Cloudy with Light Rain 54 12.2 52 11.1 93 93 NE 5 7 29.91 1013 3 5 0.01 0.25
12:24 pm 12:24 Cloudy with Light Rain 54 12.2 53 11.7 97 97 N 5 7 29.94 1014 3 4 0.04 1.02
12:36 pm 12:36 Cloudy with Rain 54 12.2 52 11.1 93 93 NNE 5 7 29.94 1014 2 2 0.08 2.03
12:42 pm 12:42 Cloudy with Rain 54 12.2 52 11.1 93 93 NNE 3 6 29.94 1014 2 2 0.10 2.54
12:53 pm 12:53 Cloudy with Light Rain 54 12.2 53 11.7 97 97 NNE 5 7 29.88 1012 2 3 0.14 3.56
1:20 pm 13:20 Cloudy with Light Rain 55 12.8 53 11.7 93 93 NNE 8 13 29.91 1013 2 3 0.04 1.02
1:27 pm 13:27 Cloudy with Light Rain 55 12.8 53 11.7 93 93 NNE 8 13 29.91 1013 2 3 0.05 1.27
1:31 pm 13:31 Cloudy with Rain 55 12.8 53 11.7 93 93 NE 7 11 29.91 1013 2 3 0.06 1.52
1:41 pm 13:41 Cloudy with Rain 54 12.2 53 11.7 97 97 NE 7 11 29.91 1013 2 3 0.09 2.29
1:53 pm 13:53 Cloudy with Light Rain 55 12.8 53 11.7 93 93 NNE 7 11 29.87 1012 3 4 0.11 2.79
2:53 pm 14:53 Cloudy with Rain 55 12.8 53 11.7 93 93 N 5 7 29.85 1011 2 3 0.12 3.05
3:10 pm 15:10 Cloudy with Light Rain 55 12.8 53 11.7 93 93 NNE 5 7 29.88 1012 3 4 0.02 0.51
3:15 pm 15:15 Cloudy with Rain 55 12.8 53 11.7 93 93 NNE 5 7 29.88 1012 2 3 0.03 0.76
3:23 pm 15:23 Cloudy with Rain 55 12.8 54 12.2 96 96 N 7 11 29.88 1012 2 2 0.06 1.52
3:32 pm 15:32 Cloudy with Rain 55 12.8 54 12.2 96 96 NNE 5 7 29.88 1012 3 5 0.08 2.03
3:53 pm 15:53 Cloudy with Light Rain 56 13.3 54 12.2 93 93 ENE 3 6 29.85 1011 2 3 0.11 2.79
4:15 pm 16:15 Cloudy with Light Rain 55 12.8 54 12.2 96 96 NE 6 9 29.88 1012 3 4 0.03 0.76
4:27 pm 16:27 Cloudy with Light Rain 56 13.3 54 12.2 93 93 NNE 5 7 29.85 1011 3 5 0.04 1.02
4:37 pm 16:37 Cloudy with Light Rain 56 13.3 54 12.2 93 93 NE 6 9 29.85 1011 2 3 0.04 1.02
4:44 pm 16:44 Cloudy with Light Rain 56 13.3 54 12.2 93 93 NNE 6 9 29.83 1010 2 2 0.05 1.27
4:53 pm 16:53 Cloudy with Light Rain 55 12.8 54 12.2 96 96 N 6 9 29.84 1010 2 2 0.06 1.52
5:21 pm 17:21 Cloudy with Light Rain 55 12.8 54 12.2 96 96 N 5 7 29.85 1011 2 3 0.04 1.02
5:43 pm 17:43 Partly Cloudy with Light Rain 55 12.8 54 12.2 96 96 NW 5 7 29.85 1011 2 3 0.07 1.78
5:53 pm 17:53 Cloudy with Light Rain 55 12.8 54 12.2 96 96 NNW 3 6 29.84 1010 2 2 0.09 2.29
6:00 pm 18:00 Cloudy with Light Rain 55 12.8 54 12.2 96 96 NNW 5 7 29.85 1011 2 2 0.01 0.25
6:53 pm 18:53 Cloudy with Light Rain 55 12.8 54 12.2 96 96 N 3 6 29.84 1011 2 2 0.09 2.29
7:53 pm 19:53 Cloudy with Light Rain 55 12.8 54 12.2 96 96 N 3 6 29.83 1010 2 3 0.11 2.79
8:06 pm 20:06 Cloudy with Light Rain 55 12.8 54 12.2 96 96 Calm 29.85 1011 2 3 0.02 0.51
8:53 pm 20:53 Cloudy with Light Rain 55 12.8 54 12.2 96 96 N 3 6 29.82 1010 2 3 0.13 3.30
9:16 pm 21:16 Cloudy with Light Rain 55 12.8 54 12.2 96 96 N 3 6 29.85 1011 3 4 0.06 1.52
9:35 pm 21:35 Cloudy with Rain 55 12.8 55 12.8 100 100 Calm 29.85 1011 2 3 0.11 2.79
9:43 pm 21:43 Cloudy with Light Rain 55 12.8 55 12.8 100 100 NNW 3 6 29.85 1011 3 4 0.13 3.30
9:53 pm 21:53 Cloudy with Rain 55 12.8 54 12.2 96 96 N 5 7 29.80 1009 2 3 0.15 3.81
10:06 pm 22:06 Cloudy with Light Rain 55 12.8 54 12.2 96 96 NW 6 9 29.85 1011 3 4 0.04 1.02
10:48 pm 22:48 Cloudy with Rain 55 13 54 12 94 94 WNW 5 7 29.83 1010 3 5 0.20 5.08
10:53 pm 22:53 Cloudy with Light Rain 55 12.8 55 12.8 100 100 WNW 3 6 29.83 1010 3 5 0.21 5.33
11:09 pm 23:09 Cloudy with Rain 55 12.8 55 12.8 100 100 NNW 6 9 29.85 1011 3 4 0.07 1.78
11:17 pm 23:17 Cloudy with Rain 55 12.8 55 12.8 100 100 Calm 29.85 1011 3 5 0.10 2.54
11:45 pm 23:45 Cloudy with Light Rain 55 12.8 55 12.8 100 100 NW 7 11 29.80 1009 5 8 0.16 4.06
11:53 pm 23:53 Cloudy with Rain 55 12.8 55 12.8 100 100 WNW 6 9 29.81 1010 4 6 0.17 4.32

Powered by AerisWeather